Location: Boda
(47.1872°N, 9.5454°E)
Time: 09:50:39
(UTC+00:00)

ARIANE 5 R/B - Pass Details

Date: 14 May 2021
Orbit: 748 x 795 km, 98.7° (Epoch: 16 June)

Event Time Altitude Azimuth Distance (km) Brightness Sun altitude
Rises 02:54:48 0° 12° (NNE) 3,281 6.7 -8.2°
Reaches altitude 10° 02:57:09 10° 10° (N) 2,342 5.8 -7.9°
Maximum altitude 03:02:16 69° 288° (WNW) 826 2.6 -7.2°
Drops below altitude 10° 03:07:18 10° 206° (SSW) 2,294 4.4 -6.5°
Enters shadow 03:08:43 - 204° (SSW) 2,860 4.9 -6.3°
